星链-34875(STARLINK-34875)

导读 | 豆包AI

STARLINK-34875是美国于2025年9月21日发射的星链卫星,隶属于SpaceX公司的星链星座项目。星链项目旨在构建全球卫星互联网星座,为全球多地提供高速低延迟互联网服务,该卫星的发射延续了星链星座持续组网扩容的进程,进一步扩充了星座规模。

基本信息
目录编号:
65689
目录名称:
STARLINK-34875
国际标识:
2025-212P
轨道中心:
EARTH
卫星名称:
星链-34875
卫星全名:
星链-34875(STARLINK-34875)
卫星状态:
在轨 (已飞行174 天)
发射日期:
2025-09-21 UTC
国别 :
美国 (US)
星等 :
--
轨道信息
数据来源 国际轨道数据 AOE轨道数据
星历时间 2026-03-14T06:52:49+0800
11小时前
查看轨道信息
2026-03-12T15:00:00+0800
2天前
查看轨道信息
半长轴 6853.291km 6853.24km
偏心率 0.0001224 0.0001435
轨道倾角 53.161° 53.162°
近地点辐角 136.516° 53.685°
升交点赤经 326.056° 333.784°
平近点角 223.594° 147.647°
近地点 474.315km 474.119km
远地点 475.993km 476.087km
周期 94.104分钟 94.103分钟
每日圈数 15.302207 15.302377
详细信息
固有亮度:
5
最大亮度:
2.5
卫星平台:
Starlink V1.0
覆盖范围:
全球
运营商:
太空探索技术公司
运营商所在国:
美国
制造商(研发单位):
太空探索技术公司
制造商所在国:
美国
使用方式:
暂无
卫星简介
Starlink 计划是 SpaceX 推出的全球卫星互联网项目,通过发射低轨道卫星,为全球尤其是偏远地区提供高速、低延迟的互联网服务。自 2019 年起,Starlink 已部署数千颗卫星,旨在缩小全球数字鸿沟,推动互联网普及。该项目还为军事、航空等行业提供通信支持,带来广泛经济效益。
2D轨道图
3D轨道图
轨道高度分析图
轨道倾角分析图
轨道综合分析图
查看轨道综合分析图